Regional Weather Roundup
Issued by NWS Mobile, AL

Home | Current Version | Previous Version | Text Only | Print | Product List | Glossary On
Versions: 1 2 3 4 5 6 7 8 9 10 11 12 13 14 15 16 17 18 19 20 21 22 23 24 25 26 27
000
ASUS44 KMOB 261013
RWRMOB
REGIONAL WEATHER ROUNDUP
NATIONAL WEATHER SERVICE MOBILE AL
500 AM CDT FRI AUG 26 2016

NOTE: "FAIR" INDICATES FEW OR NO CLOUDS BELOW 12,000 FEET WITH NO
      SIGNIFICANT WEATHER AND/OR OBSTRUCTIONS TO VISIBILITY.

  * THESE STATIONS ARE PART OF THE UNIVERSITY OF SOUTH ALABAMA
    MESONET AND ARE NOT UNDER NWS OR FAA QUALITY CONTROL.

ALZ061>064-261100-
COASTAL ALABAMA

CITY           SKY/WX    TMP DP  RH WIND       PRES   REMARKS
MOBILE REG APT FAIR      75  73  93 N7        30.03S
BROOKLEY FIELD FAIR      76  75  97 N5        30.03S
USA CAMPUS*    NOT AVBL
DOG RIVER*     NOT AVBL


CITY           SKY/WX    TMP DP  RH WIND       PRES   REMARKS
MOUNT VERNON*  NOT AVBL
SARALAND*      NOT AVBL
BAY MINETTE*   NOT AVBL
LOXLEY*        NOT AVBL
ROBERTSDALE*   NOT AVBL
FAIRHOPE*      NOT AVBL
ELBERTA*       NOT AVBL
FOLEY*         NOT AVBL
GRAND BAY*     NOT AVBL
DAUPHIN ISLND* NOT AVBL
BON SCOUR NWR* NOT AVBL
GULF SHORES    FAIR      73  73 100 NE7       30.01S

$$

ALZ051>060-261100-
INTERIOR SOUTHWEST AND SOUTH CENTRAL ALABAMA

CITY           SKY/WX    TMP DP  RH WIND       PRES   REMARKS
GREENVILLE     MOCLDY    73  69  87 CALM      30.06R
EVERGREEN      FAIR      71  69  93 CALM      30.05S FOG
CASTLEBERRY*   NOT AVBL
ATMORE*        NOT AVBL
DIXIE*         NOT AVBL
ANDALUSIA/OPP  FAIR      74  69  85 CALM      30.05S HAZE
ANDALUSIA*     NOT AVBL
FLORALA APT    FAIR      72  68  87 NE3       30.07S
FLORALA*       NOT AVBL

$$

FLZ001>006-261100-
WESTERN FLORIDA PANHANDLE

CITY           SKY/WX    TMP DP  RH WIND       PRES   REMARKS
PENSACOLA      FAIR      77  71  82 NE3       30.02S
NAS PENSACOLA  FAIR      77  73  87 NE5       30.01S
MILTON         FAIR      71  70  96 NE5       30.03S
WHTNG S FIELD  NOT AVBL


CITY           SKY/WX    TMP DP  RH WIND       PRES   REMARKS
WALNUT HILL*   NOT AVBL
JAY*           NOT AVBL
DUKE FIELD     FAIR      70  68  93 NE2       30.02S
CRESTVIEW      FAIR      69  67  93 CALM      30.04F
VALPARAISO     PTCLDY    77  68  75 NE6       30.02S
DESTIN         FAIR      80  72  76 E5        30.02S

$$

MSZ076-079-261100-
INTERIOR SOUTHEAST MISSISSIPPI

CITY           SKY/WX    TMP DP  RH WIND       PRES   REMARKS
LEAKESVILLE*   NOT AVBL
AGRICOLA*      NOT AVBL

$$

MARINE OBSERVATIONS

STATION/POSITION TIME  TEMP    WIND        PRES    WAVE
                       AIR SEA DIR/SP/G            HT/PER
                 (UTC) (F)     (DEG/KT/KT) (MB)    (FT/S)
PASCAGOULA       0900   78     360/  7/  8 1015.9F
PETIT BOIS ISLND 0900   81      10/ 13/ 15 1016.4F
GRAND BAY        0845   78      10/  6     1017.0F
KATRINA CUT      0900   81      30/ 13     1016.9F
CEDAR POINT      0900   80      30/  7     1015.9F
E DAUPHIN ISLAND 0900   84      40/ 10/ 12 1015.7F
MIDDLE BAY LIGHT 0900   82      30/ 11     1016.3S
USCG MOBILE BAY  0900   78 88   20/  4/  6 1016.7F
STATE DOCKS      0900   79 87              1016.2F
MEAHER PARK      0900   78      20/  4     1015.9F
WEEKS BAY        0800   75                   N/A
FORT MORGAN      0900   83      60/ 11/ 13 1015.5F
12 S ORANGE BCH  0950   85 86   70/ 10/ 12 1015.6F   2/ 6
PENSACOLA BAY    0900   81 87   10/  5/  8 1016.5F
64 S DAUPHIN ISL 0900   86 86   80/ 14/ 17 1014.8F
67 S FORT MORGAN 0930   85      70/ 17     1014.6F

$$

SELECTED LOCATIONS ACROSS THE REGION

CITY           SKY/WX    TMP DP  RH WIND       PRES   REMARKS
NEW ORLEANS    LGT RAIN  82  77  84 NE7       30.01R
GULFPORT       FAIR      75  74  96 N6        30.01R
PASCAGOULA AP  FAIR      74  74 100 N5        30.01S
PASCAGOULA*    NOT AVBL
HATTIESBURG    FAIR      73  72  96 CALM      30.04S
LAUREL         FAIR      72  70  94 N3        30.04F
MERIDIAN       FAIR      78  74  87 CALM      30.05R
JACKSON        FAIR      74  72  93 CALM      30.04F
MONTGOMERY     FAIR      76  71  85 E3        30.05S
TROY           FAIR      71  71 100 CALM      30.07S FOG
KINSTON*       NOT AVBL
GENEVA*        NOT AVBL
ASHFORD*       NOT AVBL
DOTHAN         FAIR      70  70 100 NE3       30.09S
PANAMA CITY    FAIR      73  69  87 NE5       30.01F

$$





USA.gov is the U.S. government's official web portal to all federal, state and local government web resources and services.